Flag Weather past 2 weeks in Kristiansand, Norway

Now
45 °F

Partly cloudy.


Feels Like: 40 °F
Forecast: 41 / 49 °F
Wind: 8 mph from East

Location: Kristiansand / Kjevik

Current Time: Nov 23, 2014 at 8:19:33 AM

Latest Report: Nov 23, 2014 at 7:50 AM


Visibility: 4 mi

Pressure: 30.12 "Hg

Humidity: 93%

Dew point: 43 °F

Location of KristiansandLocation

Historic Weather in Kristiansand — Graph

°F

Kristiansand temperature yesterday

Maximum temperature yesterday: 43 °F (at 9:20 PM)
Minimum temperature yesterday: 34 °F (at 12:20 AM)
Average temperature yesterday: 38 °F

Past Weeks' High & Low Weather Summary

 TemperatureHumidityPressure
High52 °F (Nov 9, 1:50 AM)100% (Nov 8, 9:50 PM)30.48 "Hg (Nov 8, 9:50 PM)
Low28 °F (Nov 21, 3:50 AM)70% (Nov 20, 11:50 AM)29.53 "Hg (Nov 8, 6:20 AM)
Average43 °F90%30.05 "Hg
* Reported Nov 8 6:20 AM — Nov 23 6:50 AM, Kristiansand, Weather by CustomWeather, © 2014

Note: Actual official high and low records may vary slightly from our data, if they occured in-between our weather recording intervals... More about our weather records

Advertising

Kristiansand weather history for previous 24 hours

 ConditionsComfort  
Time TempWeatherWind HumidityBarometerVisibility
6:50 AM
Nov 23
45 °FPassing clouds.5 mph87%30.12 "Hg4 mi
6:20 AM43 °FPassing clouds.7 mph93%30.12 "HgN/A
5:50 AM45 °FPartly cloudy.6 mph87%30.15 "HgN/A
5:20 AM45 °FOvercast.6 mph87%30.15 "HgN/A
4:50 AM43 °FMostly cloudy.6 mph93%30.15 "HgN/A
4:20 AM43 °FMostly cloudy.7 mph93%30.15 "Hg4 mi
3:50 AM43 °FPartly cloudy.6 mph93%30.15 "Hg5 mi
3:20 AM43 °FOvercast.7 mph93%30.15 "HgN/A
2:50 AM43 °FLight rain. Mostly cloudy.7 mph93%30.15 "Hg3 mi
2:20 AM43 °FOvercast.8 mph93%30.15 "Hg3 mi
1:50 AM43 °FPassing clouds.8 mph93%30.18 "Hg2 mi
1:20 AM43 °FDrizzle. Overcast.9 mph93%30.18 "Hg2 mi
12:50 AM43 °FDrizzle. Mostly cloudy.7 mph93%30.18 "Hg4 mi
12:20 AM43 °FDrizzle. Mostly cloudy.6 mph93%30.18 "HgN/A
11:50 PM
Nov 22
43 °FDrizzle. Fog.7 mph93%30.18 "Hg2 mi
11:20 PM43 °FLight rain. Overcast.5 mph93%30.18 "Hg2 mi
10:50 PM43 °FPassing clouds.5 mph93%30.18 "Hg4 mi
10:20 PM43 °FLight rain. Partly cloudy.6 mph93%30.18 "Hg6 mi
9:50 PM41 °FLight rain. Partly cloudy.5 mph93%30.18 "Hg4 mi
9:20 PM43 °FPartly cloudy.5 mph93%30.18 "Hg6 mi
8:50 PM41 °FPartly cloudy.5 mph93%30.18 "HgN/A
8:20 PM41 °FLight rain. Partly cloudy.7 mph100%30.15 "Hg6 mi
7:50 PM41 °FPartly cloudy.1 mph100%30.18 "HgN/A
7:20 PM41 °FRain. Partly cloudy.7 mph100%30.18 "Hg5 mi
6:50 PM41 °FRain. Partly cloudy.9 mph93%30.18 "Hg3 mi
6:20 PM39 °FLight rain. Partly cloudy.10 mph93%30.18 "Hg6 mi
5:50 PM39 °FRain. Passing clouds.10 mph93%30.18 "Hg4 mi
5:20 PM37 °FRain. Partly cloudy.12 mph100%30.18 "Hg4 mi
4:50 PM37 °FLight rain. Partly cloudy.13 mph100%30.18 "Hg4 mi
4:20 PM37 °FLight rain. Partly cloudy.13 mph100%30.18 "Hg4 mi
3:50 PM37 °FLight rain. Broken clouds.14 mph100%30.18 "HgN/A
3:20 PM37 °FDrizzle. Broken clouds.12 mph100%30.18 "Hg6 mi
2:50 PM37 °FSprinkles. Broken clouds.14 mph93%30.21 "HgN/A
2:20 PM37 °FBroken clouds.14 mph93%30.21 "HgN/A
1:50 PM37 °FBroken clouds.15 mph93%30.21 "HgN/A
1:20 PM37 °FBroken clouds.12 mph93%30.21 "HgN/A
12:50 PM37 °FPartly sunny.14 mph93%30.24 "HgN/A
12:20 PM37 °FBroken clouds.14 mph93%30.24 "HgN/A
11:50 AM37 °FLight rain. Broken clouds.12 mph93%30.24 "HgN/A
11:20 AM36 °FLight rain. Broken clouds.13 mph100%30.24 "HgN/A
10:50 AM36 °FLight rain. Broken clouds.14 mph93%30.24 "HgN/A
10:20 AM36 °FLight rain. Broken clouds.13 mph93%30.24 "HgN/A
9:50 AM36 °FBroken clouds.13 mph93%30.24 "HgN/A
9:20 AM36 °FLight rain. Broken clouds.10 mph93%30.24 "HgN/A
8:50 AM36 °FLight rain. Broken clouds.12 mph87%30.24 "HgN/A
8:20 AM36 °FLight rain. Partly cloudy.12 mph87%30.24 "HgN/A
Weather by CustomWeather, © 2014

See weather overviewHow to use our weather pages